Home > Weather > Bremen > Past weeks

Flag for Germany Past Weather in Bremen, Bremen, Germany — Yesterday and Last 2 Weeks

Now
77 °F

Passing clouds.


Feels Like: 78 °F
Forecast: 58 / 74 °F
Wind: 5 mph from East

Location: Bremen Airport

Current Time: Jul 26, 2016 at 6:03:32 PM

Latest Report: Jul 26, 2016 at 5:20 PM


Visibility: N/A

Pressure: 30.09 "Hg

Humidity: 44%

Dew Point: 54 °F

Location of BremenLocation

Past Weather in Bremen — Graph

°F

Bremen Temperature Yesterday

Maximum temperature yesterday: 81 °F (at 2:20 PM)
Minimum temperature yesterday: 64 °F (at 5:20 AM)
Average temperature yesterday: 72 °F

High & Low Weather Summary for the Past Weeks

 TemperatureHumidityPressure
High88 °F (Jul 20, 3:50 PM)100% (Jul 12, 11:50 PM)30.24 "Hg (Jul 12, 11:50 PM)
Low52 °F (Jul 14, 6:20 AM)33% (Jul 20, 4:50 PM)29.77 "Hg (Jul 11, 4:20 PM)
Average67 °F76%30.05 "Hg
* Reported Jul 11 4:20 PM — Jul 26 4:50 PM, Bremen, Weather by CustomWeather, © 2016

Note: Actual official high and low records may vary slightly from our data, if they occured in-between our weather recording intervals... More about our weather records

Advertising

Bremen Weather History for the Previous 24 Hours

Scroll right to see more
 ConditionsComfort  
Time TempWeatherWind HumidityBarometerVisibility
4:50 PM
Tue, Jul 26
75 °FSunny.5 mph44%30.12 "Hg10 mi
4:20 PM75 °FSunny.2 mph44%30.12 "Hg10 mi
3:50 PM73 °FPassing clouds.5 mph47%30.12 "HgN/A
3:20 PM73 °FScattered clouds.8 mph47%30.12 "HgN/A
2:50 PM75 °FScattered clouds.6 mph44%30.12 "HgN/A
2:20 PM73 °FScattered clouds.3 mph47%30.12 "HgN/A
1:50 PM72 °FScattered clouds.3 mph53%30.12 "HgN/A
1:20 PM75 °FScattered clouds.5 mph50%30.12 "HgN/A
12:50 PM73 °FPassing clouds.2 mph47%30.12 "HgN/A
12:20 PM72 °FPassing clouds.3 mph50%30.15 "HgN/A
11:50 AM72 °FPassing clouds.3 mph50%30.15 "HgN/A
11:20 AM70 °FPassing clouds.2 mph53%30.15 "HgN/A
10:50 AM70 °FPassing clouds.3 mph46%30.15 "HgN/A
10:20 AM68 °FPassing clouds.3 mph60%30.15 "HgN/A
9:50 AM66 °FPassing clouds.2 mph73%30.15 "HgN/A
9:20 AM64 °FPassing clouds.3 mph83%30.15 "HgN/A
8:50 AM63 °FScattered clouds.2 mph94%30.15 "Hg5 mi
8:20 AM61 °FScattered clouds.2 mph94%30.12 "Hg4 mi
7:50 AM59 °FClear.2 mph100%30.12 "Hg3 mi
7:20 AM59 °FPartly sunny.3 mph100%30.12 "Hg3 mi
6:50 AM57 °FFog.1 mph100%30.12 "Hg3 mi
6:20 AM57 °FFog.3 mph100%30.12 "Hg2 mi
5:50 AM57 °FFog.3 mph100%30.12 "Hg1 mi
5:20 AM57 °FFog.3 mph100%30.09 "Hg3 mi
4:50 AM57 °FFog.2 mph100%30.09 "Hg4 mi
4:20 AM57 °FClear.6 mph100%30.09 "Hg10 mi
3:50 AM59 °FClear.3 mph94%30.09 "Hg10 mi
3:20 AM63 °FPassing clouds.7 mph88%30.09 "HgN/A
2:50 AM63 °FPassing clouds.6 mph88%30.09 "HgN/A
2:20 AM63 °FPassing clouds.7 mph88%30.09 "HgN/A
1:50 AM63 °FClear.8 mph88%30.09 "Hg10 mi
1:20 AM64 °FClear.6 mph88%30.09 "Hg10 mi
12:50 AM66 °FPassing clouds.7 mph83%30.09 "HgN/A
12:20 AM66 °FPassing clouds.5 mph88%30.09 "HgN/A
11:50 PM
Mon, Jul 25
66 °FPassing clouds.5 mph88%30.09 "HgN/A
11:20 PM66 °FPartly cloudy.6 mph83%30.09 "HgN/A
10:50 PM68 °FPassing clouds.8 mph83%30.09 "HgN/A
10:20 PM68 °FPartly sunny.13 mph88%30.09 "HgN/A
9:50 PM68 °FPartly sunny.13 mph88%30.09 "HgN/A
9:20 PM70 °FPartly sunny.10 mph83%30.07 "HgN/A
8:50 PM70 °FPartly sunny.13 mph83%30.07 "HgN/A
8:20 PM72 °FBroken clouds.15 mph78%30.07 "HgN/A
7:50 PM75 °FPartly sunny.7 mph69%30.04 "HgN/A
7:20 PM75 °FBroken clouds.9 mph69%30.04 "HgN/A
6:50 PM77 °FBroken clouds.9 mph65%30.04 "HgN/A
6:20 PM77 °FPartly sunny.8 mph65%30.04 "HgN/A
Weather by CustomWeather, © 2016

See weather overviewHow to use our weather pages